Tracking 28052 objects as of 21-Sep-2023
HD Live streaming from Space Station
objects crossing your sky now

STARLINK-2581

Track STARLINK-2581 now!
10-day predictions
STARLINK-2581 is classified as:


NORAD ID: 48412
Int'l Code: 2021-038BM
Perigee: 553.4 km
Apogee: 555.4 km
Inclination: 53.1 °
Period: 95.6 minutes
Semi major axis: 6925 km
RCS: Unknown
Launch date: May 4, 2021
Source: United States (US)
Launch site: AIR FORCE EASTERN TEST RANGE (AFETR)
Your satellite tracking list
Your tracking list is empty




NASA's NSSDC Master Catalog

Two Line Element Set (TLE):
1 48412U 21038BM  23264.45444673  .00012914  00000-0  88446-3 0  9997
2 48412  53.0573  13.3699 0001434  68.2345 291.8796 15.06390785132894
Source of the keplerian elements: AFSPC